Time,TemperatureF,DewpointF,PressureIn,WindDirection,WindDirectionDegrees,WindSpeedMPH,WindSpeedGustMPH,Humidity,HourlyPrecipIn,Conditions,Clouds,dailyrainin,SoftwareType,DateUTC
2013-02-01 00:00:00,26.4,21.7,29.81,NNE,22,0.0,0.0,82,0.00,CLR,,0.00,WeatherDisplay:10.37,2013-02-01 05:00:00,
2013-02-01 00:03:00,26.4,21.7,29.81,NNE,22,0.0,0.0,82,0.00,CLR,,0.00,WeatherDisplay:10.37,2013-02-01 05:03:00,
2013-02-01 00:08:00,26.4,22.0,29.81,NNE,22,1.1,1.1,83,0.00,CLR,,0.00,WeatherDisplay:10.37,2013-02-01 05:08:00,
2013-02-01 00:13:00,26.4,22.0,29.80,NNE,22,0.0,0.0,83,0.00,CLR,,0.00,WeatherDisplay:10.37,2013-02-01 05:13:00,
2013-02-01 00:18:00,26.4,22.0,29.80,NNE,22,0.0,0.0,83,0.00,CLR,,0.00,WeatherDisplay:10.37,2013-02-01 05:18:00,
2013-02-01 00:23:00,26.4,22.0,29.80,NNE,22,0.0,0.0,83,0.00,CLR,,0.00,WeatherDisplay:10.37,2013-02-01 05:23:00,
2013-02-01 00:28:00,26.4,22.2,29.80,NNE,22,0.0,0.0,84,0.00,CLR,,0.00,WeatherDisplay:10.37,2013-02-01 05:28:00,
2013-02-01 00:33:00,26.4,22.2,29.79,NNE,22,0.0,0.0,84,0.00,CLR,,0.00,WeatherDisplay:10.37,2013-02-01 05:33:00,
2013-02-01 00:38:00,26.4,22.2,29.79,NNE,22,0.0,0.0,84,0.00,CLR,,0.00,WeatherDisplay:10.37,2013-02-01 05:38:00,
2013-02-01 00:43:00,26.4,22.2,29.78,NNE,22,0.0,0.0,84,0.00,CLR,,0.00,WeatherDisplay:10.37,2013-02-01 05:43:00,
2013-02-01 00:48:00,26.4,22.2,29.79,NNE,22,0.0,0.0,84,0.00,CLR,,0.00,WeatherDisplay:10.37,2013-02-01 05:48:00,
2013-02-01 00:53:00,26.4,22.2,29.79,NNE,22,0.0,0.0,84,0.00,CLR,,0.00,WeatherDisplay:10.37,2013-02-01 05:53:00,
2013-02-01 00:58:00,26.4,22.2,29.79,NNE,22,0.0,0.0,84,0.00,CLR,,0.00,WeatherDisplay:10.37,2013-02-01 05:58:00,
2013-02-01 01:03:00,26.4,22.2,29.79,NNE,22,0.0,0.0,84,0.00,CLR,,0.00,WeatherDisplay:10.37,2013-02-01 06:03:00,
2013-02-01 01:08:00,26.4,22.2,29.79,NNE,22,0.0,0.0,84,0.00,CLR,,0.00,WeatherDisplay:10.37,2013-02-01 06:08:00,
2013-02-01 01:13:00,26.4,22.2,29.79,NNE,22,0.0,0.0,84,0.00,CLR,,0.00,WeatherDisplay:10.37,2013-02-01 06:13:00,
2013-02-01 01:18:00,26.4,22.5,29.79,NNE,22,0.0,0.0,85,0.00,CLR,,0.00,WeatherDisplay:10.37,2013-02-01 06:18:00,
2013-02-01 01:23:00,26.4,22.5,29.79,NNE,22,0.0,0.0,85,0.00,CLR,,0.00,WeatherDisplay:10.37,2013-02-01 06:23:00,
2013-02-01 01:28:00,26.4,22.5,29.79,NNE,22,0.0,0.0,85,0.00,CLR,,0.00,WeatherDisplay:10.37,2013-02-01 06:28:00,
2013-02-01 01:33:00,26.4,22.5,29.78,NNE,22,0.0,0.0,85,0.00,CLR,,0.00,WeatherDisplay:10.37,2013-02-01 06:33:00,
2013-02-01 01:38:00,26.6,22.7,29.78,NNE,22,0.0,0.0,85,0.00,CLR,,0.00,WeatherDisplay:10.37,2013-02-01 06:38:00,
2013-02-01 01:43:00,26.6,22.7,29.78,NNE,22,0.0,0.0,85,0.00,CLR,,0.00,WeatherDisplay:10.37,2013-02-01 06:43:00,
2013-02-01 01:48:00,26.6,23.0,29.78,NNE,22,0.0,0.0,86,0.00,CLR,,0.00,WeatherDisplay:10.37,2013-02-01 06:48:00,
2013-02-01 01:53:00,26.6,23.0,29.78,NNE,22,0.0,0.0,86,0.00,CLR,,0.00,WeatherDisplay:10.37,2013-02-01 06:53:00,
2013-02-01 01:58:00,26.6,23.0,29.78,NNE,22,0.0,0.0,86,0.00,CLR,,0.00,WeatherDisplay:10.37,2013-02-01 06:58:00,
2013-02-01 02:03:00,26.6,23.0,29.78,NNE,22,0.0,0.0,86,0.00,CLR,,0.00,WeatherDisplay:10.37,2013-02-01 07:03:00,
2013-02-01 02:08:00,26.6,23.3,29.78,NNE,22,0.0,0.0,87,0.00,CLR,,0.00,WeatherDisplay:10.37,2013-02-01 07:08:00,
2013-02-01 02:13:00,26.6,23.3,29.78,NNE,22,0.0,0.0,87,0.00,CLR,,0.00,WeatherDisplay:10.37,2013-02-01 07:13:00,
2013-02-01 02:18:00,26.8,23.4,29.77,NNE,22,0.0,0.0,87,0.00,CLR,,0.00,WeatherDisplay:10.37,2013-02-01 07:18:00,
2013-02-01 02:23:00,26.8,23.4,29.77,NNE,22,0.0,0.0,87,0.00,CLR,,0.00,WeatherDisplay:10.37,2013-02-01 07:23:00,
2013-02-01 02:28:00,27.0,23.6,29.80,NNE,22,12.7,12.7,87,0.00,CLR,,0.00,WeatherDisplay:10.37,2013-02-01 07:28:00,
2013-02-01 02:33:00,26.4,23.1,29.80,NNE,22,9.2,9.2,87,0.00,CLR,,0.00,WeatherDisplay:10.37,2013-02-01 07:33:00,
2013-02-01 02:38:00,25.9,22.8,29.80,NNE,22,6.9,6.9,88,0.00,CLR,,0.00,WeatherDisplay:10.37,2013-02-01 07:38:00,
2013-02-01 02:43:00,25.5,22.5,29.81,NNE,22,6.9,7.2,88,0.00,CLR,,0.00,WeatherDisplay:10.37,2013-02-01 07:43:00,
2013-02-01 02:48:00,25.5,22.5,29.82,NNE,22,3.5,3.5,88,0.00,CLR,,0.00,WeatherDisplay:10.37,2013-02-01 07:48:00,
2013-02-01 02:53:00,25.5,22.5,29.83,NNE,22,3.5,3.5,88,0.00,CLR,,0.00,WeatherDisplay:10.37,2013-02-01 07:53:00,
2013-02-01 02:58:00,25.0,21.7,29.84,NNE,22,10.4,10.4,87,0.00,CLR,,0.00,WeatherDisplay:10.37,2013-02-01 07:58:00,
2013-02-01 03:03:00,25.0,21.7,29.84,NNE,22,8.2,8.2,87,0.00,CLR,,0.00,WeatherDisplay:10.37,2013-02-01 08:03:00,
2013-02-01 03:08:00,23.5,20.2,29.86,NNE,22,3.5,3.5,87,0.00,CLR,,0.00,WeatherDisplay:10.37,2013-02-01 08:08:00,
2013-02-01 03:13:00,22.8,19.5,29.86,NNE,22,8.1,8.1,87,0.00,CLR,,0.00,WeatherDisplay:10.37,2013-02-01 08:13:00,
2013-02-01 03:18:00,21.9,18.6,29.86,NNE,22,13.8,13.8,87,0.00,CLR,,0.00,WeatherDisplay:10.37,2013-02-01 08:18:00,
2013-02-01 03:23:00,21.4,18.1,29.87,NNE,22,2.3,3.0,87,0.00,CLR,,0.00,WeatherDisplay:10.37,2013-02-01 08:23:00,
2013-02-01 03:28:00,21.0,17.8,29.88,NNE,22,7.2,7.2,87,0.00,CLR,,0.00,WeatherDisplay:10.37,2013-02-01 08:28:00,
2013-02-01 03:34:00,20.5,17.2,29.89,NNE,22,15.0,15.0,87,0.00,CLR,,0.00,WeatherDisplay:10.37,2013-02-01 08:34:00,
2013-02-01 03:39:00,20.1,16.9,29.89,NNE,22,6.9,7.5,87,0.00,CLR,,0.00,WeatherDisplay:10.37,2013-02-01 08:39:00,
2013-02-01 03:44:00,19.6,16.3,29.90,NNE,22,11.5,12.3,87,0.00,CLR,,0.00,WeatherDisplay:10.37,2013-02-01 08:44:00,
2013-02-01 03:49:00,19.6,16.3,29.90,NNE,22,9.2,9.3,87,0.00,CLR,,0.00,WeatherDisplay:10.37,2013-02-01 08:49:00,
2013-02-01 03:54:00,19.2,16.0,29.90,NNE,22,3.5,3.8,87,0.00,CLR,,0.00,WeatherDisplay:10.37,2013-02-01 08:54:00,
2013-02-01 03:59:00,18.9,15.6,29.90,NNE,22,16.7,16.7,87,0.00,CLR,,0.00,WeatherDisplay:10.37,2013-02-01 08:59:00,
2013-02-01 04:04:00,18.5,15.0,29.91,NNE,22,9.2,9.2,86,0.00,CLR,,0.00,WeatherDisplay:10.37,2013-02-01 09:04:00,
2013-02-01 04:09:00,18.1,14.7,29.91,NNE,22,11.5,11.5,86,0.00,CLR,,0.00,WeatherDisplay:10.37,2013-02-01 09:09:00,
2013-02-01 04:14:00,17.8,14.3,29.91,NNE,22,13.8,13.8,86,0.00,CLR,,0.00,WeatherDisplay:10.37,2013-02-01 09:14:00,
2013-02-01 04:19:00,17.6,14.1,29.92,NNE,22,9.2,9.2,86,0.00,CLR,,0.00,WeatherDisplay:10.37,2013-02-01 09:19:00,
2013-02-01 04:24:00,17.4,13.9,29.92,NNE,22,10.4,10.8,86,0.00,CLR,,0.00,WeatherDisplay:10.37,2013-02-01 09:24:00,
2013-02-01 04:29:00,17.2,13.5,29.92,NNE,22,8.1,8.1,85,0.00,CLR,,0.00,WeatherDisplay:10.37,2013-02-01 09:29:00,
2013-02-01 04:34:00,16.9,13.2,29.93,NNE,22,6.9,7.3,85,0.00,CLR,,0.00,WeatherDisplay:10.37,2013-02-01 09:34:00,
2013-02-01 04:39:00,16.9,13.2,29.93,NNE,22,6.9,6.9,85,0.00,CLR,,0.00,WeatherDisplay:10.37,2013-02-01 09:39:00,
2013-02-01 04:44:00,16.3,12.4,29.93,NNE,22,8.9,8.9,84,0.00,CLR,,0.00,WeatherDisplay:10.37,2013-02-01 09:44:00,
2013-02-01 04:49:00,16.2,12.2,29.93,NNE,22,9.2,9.5,84,0.00,CLR,,0.00,WeatherDisplay:10.37,2013-02-01 09:49:00,
2013-02-01 04:54:00,16.0,11.7,29.94,NNE,22,16.4,16.4,83,0.00,CLR,,0.00,WeatherDisplay:10.37,2013-02-01 09:54:00,
2013-02-01 04:59:00,15.8,11.3,29.94,NNE,22,6.9,6.9,82,0.00,CLR,,0.00,WeatherDisplay:10.37,2013-02-01 09:59:00,
2013-02-01 05:04:00,15.6,10.8,29.95,NNE,22,18.4,19.1,81,0.00,CLR,,0.00,WeatherDisplay:10.37,2013-02-01 10:04:00,
2013-02-01 05:09:00,15.6,10.8,29.94,NNE,22,8.1,8.1,81,0.00,CLR,,0.00,WeatherDisplay:10.37,2013-02-01 10:09:00,
2013-02-01 05:14:00,15.4,10.7,29.95,NNE,22,8.1,8.1,81,0.00,CLR,,0.00,WeatherDisplay:10.37,2013-02-01 10:14:00,
2013-02-01 05:19:00,15.4,10.7,29.95,NNE,22,3.5,3.5,81,0.00,CLR,,0.00,WeatherDisplay:10.37,2013-02-01 10:19:00,
2013-02-01 05:24:00,15.4,10.7,29.95,NNE,22,0.0,0.0,81,0.00,CLR,,0.00,WeatherDisplay:10.37,2013-02-01 10:24:00,
2013-02-01 05:29:00,15.1,10.6,29.96,NNE,22,13.8,13.8,82,0.00,CLR,,0.00,WeatherDisplay:10.37,2013-02-01 10:29:00,
2013-02-01 05:34:00,14.9,10.4,29.96,NNE,22,4.6,6.0,82,0.00,CLR,,0.00,WeatherDisplay:10.37,2013-02-01 10:34:00,
2013-02-01 05:39:00,14.7,10.2,29.97,NNE,22,10.4,10.4,82,0.00,CLR,,0.00,WeatherDisplay:10.37,2013-02-01 10:39:00,
2013-02-01 05:44:00,14.7,10.2,29.97,NNE,22,6.9,7.5,82,0.00,CLR,,0.00,WeatherDisplay:10.37,2013-02-01 10:44:00,
2013-02-01 05:49:00,14.5,10.0,29.97,NNE,22,4.6,5.3,82,0.00,CLR,,0.00,WeatherDisplay:10.37,2013-02-01 10:49:00,
2013-02-01 05:54:00,14.2,9.4,29.98,NNE,22,3.5,4.0,81,0.00,CLR,,0.00,WeatherDisplay:10.37,2013-02-01 10:54:00,
2013-02-01 05:59:00,14.2,9.4,29.98,NNE,22,3.5,3.9,81,0.00,CLR,,0.00,WeatherDisplay:10.37,2013-02-01 10:59:00,
2013-02-01 06:04:00,14.2,9.4,29.98,NNE,22,0.0,0.0,81,0.00,CLR,,0.00,WeatherDisplay:10.37,2013-02-01 11:04:00,
2013-02-01 06:09:00,14.0,9.5,30.00,NNE,22,3.5,4.0,82,0.00,CLR,,0.00,WeatherDisplay:10.37,2013-02-01 11:09:00,
2013-02-01 06:14:00,13.8,9.1,29.99,NNE,22,5.8,5.8,81,0.00,CLR,,0.00,WeatherDisplay:10.37,2013-02-01 11:14:00,
2013-02-01 06:19:00,13.6,8.9,30.00,NNE,22,2.3,4.1,81,0.00,CLR,,0.00,WeatherDisplay:10.37,2013-02-01 11:19:00,
2013-02-01 06:24:00,13.6,9.2,30.00,NNE,22,2.3,2.3,82,0.00,CLR,,0.00,WeatherDisplay:10.37,2013-02-01 11:24:00,
2013-02-01 06:29:00,13.5,9.0,30.01,NNE,22,3.9,4.0,82,0.00,CLR,,0.00,WeatherDisplay:10.37,2013-02-01 11:29:00,
2013-02-01 06:34:00,13.3,8.5,30.01,NNE,22,2.4,2.5,81,0.00,CLR,,0.00,WeatherDisplay:10.37,2013-02-01 11:34:00,
2013-02-01 06:39:00,12.7,8.0,30.01,NNE,22,5.8,5.8,81,0.00,CLR,,0.00,WeatherDisplay:10.37,2013-02-01 11:39:00,
2013-02-01 06:44:00,12.6,7.8,30.02,NNE,22,6.9,6.9,81,0.00,CLR,,0.00,WeatherDisplay:10.37,2013-02-01 11:44:00,
2013-02-01 06:49:00,12.6,7.8,30.02,NNE,22,8.2,8.5,81,0.00,CLR,,0.00,WeatherDisplay:10.37,2013-02-01 11:49:00,
2013-02-01 06:54:00,12.4,7.7,30.03,NNE,22,6.8,6.8,81,0.00,CLR,,0.00,WeatherDisplay:10.37,2013-02-01 11:54:00,
2013-02-01 06:59:00,12.2,7.5,30.03,NNE,22,12.7,12.8,81,0.00,CLR,,0.00,WeatherDisplay:10.37,2013-02-01 11:59:00,
2013-02-01 07:04:00,12.0,7.0,30.03,NNE,22,25.3,25.3,80,0.00,CLR,,0.00,WeatherDisplay:10.37,2013-02-01 12:04:00,
2013-02-01 07:09:00,11.8,6.9,30.04,NNE,22,4.6,4.6,80,0.00,CLR,,0.00,WeatherDisplay:10.37,2013-02-01 12:09:00,
2013-02-01 07:14:00,11.5,6.5,30.04,NNE,22,9.2,9.3,80,0.00,CLR,,0.00,WeatherDisplay:10.37,2013-02-01 12:14:00,
2013-02-01 07:19:00,11.3,6.3,30.04,NNE,22,13.8,13.8,80,0.00,CLR,,0.00,WeatherDisplay:10.37,2013-02-01 12:19:00,
2013-02-01 07:24:00,11.1,6.4,30.05,NNE,22,6.9,7.0,81,0.00,CLR,,0.00,WeatherDisplay:10.37,2013-02-01 12:24:00,
2013-02-01 07:29:00,10.9,6.3,30.06,NNE,22,8.1,8.1,81,0.00,CLR,,0.00,WeatherDisplay:10.37,2013-02-01 12:29:00,
2013-02-01 07:34:00,10.8,6.1,30.06,NNE,22,13.8,14.1,81,0.00,CLR,,0.00,WeatherDisplay:10.37,2013-02-01 12:34:00,
2013-02-01 07:39:00,10.6,5.9,30.06,NNE,22,12.7,13.1,81,0.00,CLR,,0.00,WeatherDisplay:10.37,2013-02-01 12:39:00,
2013-02-01 07:44:00,10.2,5.0,30.07,NNE,22,4.6,4.6,79,0.00,CLR,,0.00,WeatherDisplay:10.37,2013-02-01 12:44:00,
2013-02-01 07:49:00,10.2,5.0,30.07,NNE,22,5.8,5.8,79,0.00,CLR,,0.00,WeatherDisplay:10.37,2013-02-01 12:49:00,
2013-02-01 07:54:00,9.7,4.5,30.07,NNE,22,5.8,6.3,79,0.00,CLR,,0.00,WeatherDisplay:10.37,2013-02-01 12:54:00,
2013-02-01 07:59:00,9.7,4.5,30.07,NNE,22,8.1,8.1,79,0.00,CLR,,0.00,WeatherDisplay:10.37,2013-02-01 12:59:00,
2013-02-01 08:04:00,9.3,4.1,30.08,NNE,22,4.6,4.8,79,0.00,CLR,,0.00,WeatherDisplay:10.37,2013-02-01 13:04:00,
2013-02-01 08:09:00,9.1,3.9,30.08,NNE,22,5.8,5.8,79,0.00,CLR,,0.00,WeatherDisplay:10.37,2013-02-01 13:09:00,
2013-02-01 08:14:00,9.5,4.3,30.08,NNE,22,10.4,10.4,79,0.00,CLR,,0.00,WeatherDisplay:10.37,2013-02-01 13:14:00,
2013-02-01 08:19:00,9.7,4.5,30.08,NNE,22,12.7,13.1,79,0.00,CLR,,0.00,WeatherDisplay:10.37,2013-02-01 13:19:00,
2013-02-01 08:24:00,9.7,4.5,30.09,NNE,22,4.6,4.6,79,0.00,CLR,,0.00,WeatherDisplay:10.37,2013-02-01 13:24:00,
2013-02-01 08:29:00,9.7,4.2,30.10,NNE,22,0.0,0.4,78,0.00,CLR,,0.00,WeatherDisplay:10.37,2013-02-01 13:29:00,
2013-02-01 08:34:00,10.0,4.5,30.10,NNE,22,10.4,10.4,78,0.00,CLR,,0.00,WeatherDisplay:10.37,2013-02-01 13:34:00,
2013-02-01 08:39:00,10.2,4.7,30.11,NNE,22,2.3,2.3,78,0.00,CLR,,0.00,WeatherDisplay:10.37,2013-02-01 13:39:00,
2013-02-01 08:44:00,10.4,4.9,30.11,NNE,22,12.8,12.8,78,0.00,CLR,,0.00,WeatherDisplay:10.37,2013-02-01 13:44:00,
2013-02-01 08:49:00,10.8,5.0,30.11,NNE,22,6.3,6.5,77,0.00,CLR,,0.00,WeatherDisplay:10.37,2013-02-01 13:49:00,
2013-02-01 08:54:00,10.9,5.1,30.11,NNE,22,7.2,7.5,77,0.00,CLR,,0.00,WeatherDisplay:10.37,2013-02-01 13:54:00,
2013-02-01 08:59:00,11.1,5.0,30.11,NNE,22,6.9,7.3,76,0.00,CLR,,0.00,WeatherDisplay:10.37,2013-02-01 13:59:00,
2013-02-01 09:04:00,11.8,6.0,30.12,NNE,22,8.1,8.1,77,0.00,CLR,,0.00,WeatherDisplay:10.37,2013-02-01 14:04:00,
2013-02-01 09:09:00,12.0,5.9,30.12,NNE,22,1.1,1.3,76,0.00,CLR,,0.00,WeatherDisplay:10.37,2013-02-01 14:09:00,
2013-02-01 09:14:00,12.4,6.3,30.13,NNE,22,6.9,7.5,76,0.00,CLR,,0.00,WeatherDisplay:10.37,2013-02-01 14:14:00,
2013-02-01 09:19:00,13.1,6.7,30.13,NNE,22,0.0,0.0,75,0.00,CLR,,0.00,WeatherDisplay:10.37,2013-02-01 14:19:00,
2013-02-01 09:24:00,13.6,7.2,30.13,NNE,22,8.1,8.3,75,0.00,CLR,,0.00,WeatherDisplay:10.37,2013-02-01 14:24:00,
2013-02-01 09:29:00,13.1,6.4,30.13,NNE,22,2.3,2.6,74,0.00,CLR,,0.00,WeatherDisplay:10.37,2013-02-01 14:29:00,
2013-02-01 09:34:00,12.7,6.3,30.13,NNE,22,5.8,0.0,75,0.00,CLR,,0.00,WeatherDisplay:10.37,2013-02-01 14:34:00,
2013-02-01 09:39:00,13.3,6.8,30.13,NNE,22,0.0,0.0,75,0.00,CLR,,0.00,WeatherDisplay:10.37,2013-02-01 14:39:00,
2013-02-01 09:44:00,13.6,7.2,30.13,NNE,22,3.5,3.5,75,0.00,CLR,,0.00,WeatherDisplay:10.37,2013-02-01 14:44:00,
2013-02-01 09:49:00,15.8,9.0,30.14,NNE,22,1.1,0.0,74,0.00,CLR,,0.00,WeatherDisplay:10.37,2013-02-01 14:49:00,
2013-02-01 09:54:00,16.5,9.1,30.14,NNE,22,11.5,11.5,72,0.00,CLR,,0.00,WeatherDisplay:10.37,2013-02-01 14:54:00,
2013-02-01 09:59:00,17.1,9.0,30.13,NNE,22,5.8,5.8,70,0.00,CLR,,0.00,WeatherDisplay:10.37,2013-02-01 14:59:00,
2013-02-01 10:04:00,16.2,7.8,30.14,NNE,22,9.4,9.8,69,0.00,CLR,,0.00,WeatherDisplay:10.37,2013-02-01 15:04:00,
2013-02-01 10:09:00,15.4,7.4,30.14,NNE,22,3.5,4.6,70,0.00,CLR,,0.00,WeatherDisplay:10.37,2013-02-01 15:09:00,
2013-02-01 10:14:00,15.3,7.2,30.15,NNE,22,12.8,13.3,70,0.00,CLR,,0.00,WeatherDisplay:10.37,2013-02-01 15:14:00,
2013-02-01 10:19:00,15.1,7.1,30.15,NNE,22,3.9,4.0,70,0.00,CLR,,0.00,WeatherDisplay:10.37,2013-02-01 15:19:00,
2013-02-01 10:24:00,15.4,8.0,30.15,NNE,22,5.8,5.8,72,0.00,CLR,,0.00,WeatherDisplay:10.37,2013-02-01 15:24:00,
2013-02-01 10:29:00,16.9,8.5,30.15,NNE,22,8.1,8.1,69,0.00,CLR,,0.00,WeatherDisplay:10.37,2013-02-01 15:29:00,
2013-02-01 10:34:00,16.7,8.0,30.15,NNE,22,5.8,5.8,68,0.00,CLR,,0.00,WeatherDisplay:10.37,2013-02-01 15:34:00,
2013-02-01 10:39:00,17.4,9.3,30.15,NNE,22,2.7,2.8,70,0.00,CLR,,0.00,WeatherDisplay:10.37,2013-02-01 15:39:00,
2013-02-01 10:44:00,18.7,10.2,30.16,NNE,22,9.2,9.2,69,0.00,CLR,,0.00,WeatherDisplay:10.37,2013-02-01 15:44:00,
2013-02-01 10:49:00,19.9,10.1,30.16,NNE,22,18.4,18.6,65,0.00,CLR,,0.00,WeatherDisplay:10.37,2013-02-01 15:49:00,
2013-02-01 10:54:00,20.8,10.2,30.16,NNE,22,3.5,3.5,63,0.00,CLR,,0.00,WeatherDisplay:10.37,2013-02-01 15:54:00,
2013-02-01 10:59:00,22.3,8.5,30.16,NNE,22,8.1,8.2,55,0.00,CLR,,0.00,WeatherDisplay:10.37,2013-02-01 15:59:00,
2013-02-01 11:04:00,21.9,9.8,30.16,NNE,22,9.2,9.2,59,0.00,CLR,,0.00,WeatherDisplay:10.37,2013-02-01 16:04:00,
2013-02-01 11:09:00,20.3,7.9,30.16,NNE,22,9.2,9.2,58,0.00,CLR,,0.00,WeatherDisplay:10.37,2013-02-01 16:09:00,
2013-02-01 11:14:00,21.6,8.7,30.16,NNE,22,8.1,8.1,57,0.00,CLR,,0.00,WeatherDisplay:10.37,2013-02-01 16:14:00,
2013-02-01 11:19:00,24.1,10.2,30.17,NNE,22,8.1,8.3,55,0.00,CLR,,0.00,WeatherDisplay:10.37,2013-02-01 16:19:00,
2013-02-01 11:24:00,25.0,9.4,30.17,NNE,22,5.8,6.0,51,0.00,CLR,,0.00,WeatherDisplay:10.37,2013-02-01 16:24:00,
2013-02-01 11:29:00,25.2,8.7,30.17,NNE,22,8.1,8.1,49,0.00,CLR,,0.00,WeatherDisplay:10.37,2013-02-01 16:29:00,
2013-02-01 11:34:00,22.6,7.2,30.18,NNE,22,9.2,9.2,51,0.00,CLR,,0.00,WeatherDisplay:10.37,2013-02-01 16:34:00,
2013-02-01 11:39:00,19.2,5.3,30.18,NNE,22,11.5,12.0,54,0.00,CLR,,0.00,WeatherDisplay:10.37,2013-02-01 16:39:00,
2013-02-01 11:44:00,18.9,5.7,30.18,NNE,22,4.6,4.6,56,0.00,CLR,,0.00,WeatherDisplay:10.37,2013-02-01 16:44:00,
2013-02-01 11:49:00,18.3,5.6,30.18,NNE,22,1.4,1.5,57,0.00,CLR,,0.00,WeatherDisplay:10.37,2013-02-01 16:49:00,
2013-02-01 11:54:00,18.9,6.5,30.18,NNE,22,5.8,6.3,58,0.00,CLR,,0.00,WeatherDisplay:10.37,2013-02-01 16:54:00,
2013-02-01 11:59:00,18.1,6.6,30.19,NNE,22,8.1,8.1,60,0.00,CLR,,0.00,WeatherDisplay:10.37,2013-02-01 16:59:00,
2013-02-01 12:04:00,20.1,9.2,30.18,NNE,22,11.8,12.3,62,0.00,CLR,,0.00,WeatherDisplay:10.37,2013-02-01 17:04:00,
2013-02-01 12:09:00,22.6,10.8,30.18,NNE,22,8.2,8.2,60,0.00,CLR,,0.00,WeatherDisplay:10.37,2013-02-01 17:09:00,
2013-02-01 12:14:00,23.9,10.1,30.18,NNE,22,6.9,7.2,55,0.00,CLR,,0.00,WeatherDisplay:10.37,2013-02-01 17:14:00,
2013-02-01 12:19:00,23.4,9.6,30.18,NNE,22,9.2,9.5,55,0.00,CLR,,0.00,WeatherDisplay:10.37,2013-02-01 17:19:00,
2013-02-01 12:24:00,26.2,11.0,30.18,NNE,22,8.1,8.8,52,0.00,CLR,,0.00,WeatherDisplay:10.37,2013-02-01 17:24:00,
2013-02-01 12:29:00,27.7,10.0,30.18,NNE,22,9.2,9.2,47,0.00,CLR,,0.00,WeatherDisplay:10.37,2013-02-01 17:29:00,
2013-02-01 12:34:00,27.7,11.4,30.17,NNE,22,2.3,2.3,50,0.00,CLR,,0.00,WeatherDisplay:10.37,2013-02-01 17:34:00,
2013-02-01 12:39:00,28.9,12.1,30.17,NNE,22,9.2,9.2,49,0.00,CLR,,0.00,WeatherDisplay:10.37,2013-02-01 17:39:00,
2013-02-01 12:44:00,31.5,14.5,30.17,NNE,22,8.1,8.1,49,0.00,CLR,,0.00,WeatherDisplay:10.37,2013-02-01 17:44:00,
2013-02-01 12:49:00,32.5,13.5,30.17,NNE,22,1.7,1.8,45,0.00,CLR,,0.00,WeatherDisplay:10.37,2013-02-01 17:49:00,
2013-02-01 12:54:00,34.9,15.1,30.17,NNE,22,8.1,8.1,44,0.00,CLR,,0.00,WeatherDisplay:10.37,2013-02-01 17:54:00,
2013-02-01 12:59:00,34.9,15.1,30.17,NNE,22,8.1,8.1,44,0.00,CLR,,0.00,WeatherDisplay:10.37,2013-02-01 17:59:00,
2013-02-01 13:04:00,32.9,12.8,30.17,NNE,22,8.1,8.3,43,0.00,CLR,,0.00,WeatherDisplay:10.37,2013-02-01 18:04:00,
2013-02-01 13:09:00,32.5,11.4,30.17,NNE,22,5.3,5.3,41,0.00,CLR,,0.00,WeatherDisplay:10.37,2013-02-01 18:09:00,
2013-02-01 13:14:00,32.4,10.1,30.17,NNE,22,5.8,5.8,39,0.00,CLR,,0.00,WeatherDisplay:10.37,2013-02-01 18:14:00,
2013-02-01 13:19:00,32.7,12.7,30.17,NNE,22,2.9,2.9,43,0.00,CLR,,0.00,WeatherDisplay:10.37,2013-02-01 18:19:00,
2013-02-01 13:24:00,30.7,10.8,30.17,NNE,22,10.9,10.9,43,0.00,CLR,,0.00,WeatherDisplay:10.37,2013-02-01 18:24:00,
2013-02-01 13:29:00,29.1,9.9,30.17,NNE,22,9.2,9.2,44,0.00,CLR,,0.00,WeatherDisplay:10.37,2013-02-01 18:29:00,
2013-02-01 13:34:00,28.2,9.6,30.17,NNE,22,6.9,6.9,45,0.00,CLR,,0.00,WeatherDisplay:10.37,2013-02-01 18:34:00,
2013-02-01 13:40:00,27.7,8.1,30.17,NNE,22,15.0,15.8,43,0.00,CLR,,0.00,WeatherDisplay:10.37,2013-02-01 18:40:00,
2013-02-01 13:45:00,25.7,7.3,30.17,NNE,22,8.1,8.1,45,0.00,CLR,,0.00,WeatherDisplay:10.37,2013-02-01 18:45:00,
2013-02-01 13:50:00,25.5,8.1,30.17,NNE,22,4.6,5.3,47,0.00,CLR,,0.00,WeatherDisplay:10.37,2013-02-01 18:50:00,
2013-02-01 13:55:00,25.2,7.7,30.17,NNE,22,6.9,6.9,47,0.00,CLR,,0.00,WeatherDisplay:10.37,2013-02-01 18:55:00,
2013-02-01 14:00:00,23.7,5.4,30.17,NNE,22,10.4,10.4,45,0.00,CLR,,0.00,WeatherDisplay:10.37,2013-02-01 19:00:00,
2013-02-01 14:05:00,22.3,5.1,30.17,NNE,22,9.2,9.7,47,0.00,CLR,,0.00,WeatherDisplay:10.37,2013-02-01 19:05:00,
2013-02-01 14:10:00,23.5,7.2,30.17,NNE,22,13.8,13.8,49,0.00,CLR,,0.00,WeatherDisplay:10.37,2013-02-01 19:10:00,
2013-02-01 14:15:00,25.2,7.7,30.17,NNE,22,9.2,9.2,47,0.00,CLR,,0.00,WeatherDisplay:10.37,2013-02-01 19:15:00,
2013-02-01 14:20:00,24.3,5.9,30.17,NNE,22,3.5,3.5,45,0.00,CLR,,0.00,WeatherDisplay:10.37,2013-02-01 19:20:00,
2013-02-01 14:25:00,23.9,6.1,30.18,NNE,22,8.1,8.3,46,0.00,CLR,,0.00,WeatherDisplay:10.37,2013-02-01 19:25:00,
2013-02-01 14:30:00,23.9,6.1,30.18,NNE,22,9.2,9.2,46,0.00,CLR,,0.00,WeatherDisplay:10.37,2013-02-01 19:30:00,
2013-02-01 14:35:00,24.4,7.5,30.18,NNE,22,5.0,8.0,48,0.00,CLR,,0.00,WeatherDisplay:10.37,2013-02-01 19:35:00,
2013-02-01 14:40:00,24.0,7.6,30.18,NNE,22,1.0,6.0,49,0.00,CLR,,0.00,WeatherDisplay:10.37,2013-02-01 19:40:00,
2013-02-01 14:45:00,23.9,7.0,30.18,NNE,22,8.0,11.0,48,0.00,CLR,,0.00,WeatherDisplay:10.37,2013-02-01 19:45:00,
2013-02-01 14:50:00,23.9,6.6,30.18,NNE,22,7.0,9.0,47,0.00,CLR,,0.00,WeatherDisplay:10.37,2013-02-01 19:50:00,
2013-02-01 14:55:00,23.9,6.6,30.18,NNE,22,9.0,10.0,47,0.00,CLR,,0.00,WeatherDisplay:10.37,2013-02-01 19:55:00,
2013-02-01 15:00:00,25.0,8.5,30.17,NNE,22,5.0,8.0,49,0.00,CLR,,0.00,WeatherDisplay:10.37,2013-02-01 20:00:00,
2013-02-01 15:05:00,28.0,10.4,30.17,NNE,22,8.1,8.2,47,0.00,CLR,,0.00,WeatherDisplay:10.37,2013-02-01 20:05:00,
2013-02-01 15:10:00,30.9,13.0,30.17,NNE,22,3.5,3.5,47,0.00,CLR,,0.00,WeatherDisplay:10.37,2013-02-01 20:10:00,
2013-02-01 15:15:00,31.6,10.6,30.17,NNE,22,9.2,9.2,41,0.00,CLR,,0.00,WeatherDisplay:10.37,2013-02-01 20:15:00,
2013-02-01 15:20:00,29.3,8.5,30.18,NNE,22,10.4,10.4,41,0.00,CLR,,0.00,WeatherDisplay:10.37,2013-02-01 20:20:00,
2013-02-01 15:25:00,28.0,8.4,30.17,NNE,22,5.0,10.0,43,0.00,CLR,,0.00,WeatherDisplay:10.37,2013-02-01 20:25:00,
2013-02-01 15:30:00,25.7,6.3,30.18,NNE,22,11.5,11.5,43,0.00,CLR,,0.00,WeatherDisplay:10.37,2013-02-01 20:30:00,
2013-02-01 15:35:00,23.5,5.8,30.18,NNE,22,3.0,14.0,46,0.00,CLR,,0.00,WeatherDisplay:10.37,2013-02-01 20:35:00,
2013-02-01 15:40:00,22.4,5.6,30.17,NNE,22,5.0,9.0,48,0.00,CLR,,0.00,WeatherDisplay:10.37,2013-02-01 20:40:00,
2013-02-01 15:45:00,22.1,5.8,30.17,NNE,22,0.0,8.0,49,0.00,CLR,,0.00,WeatherDisplay:10.37,2013-02-01 20:45:00,
2013-02-01 15:50:00,22.3,6.4,30.18,NNE,22,2.0,8.0,50,0.00,CLR,,0.00,WeatherDisplay:10.37,2013-02-01 20:50:00,
2013-02-01 15:55:00,22.8,6.5,30.18,NNE,22,10.0,10.0,49,0.00,CLR,,0.00,WeatherDisplay:10.37,2013-02-01 20:55:00,
2013-02-01 16:00:00,25.2,8.2,30.18,NNE,22,7.0,13.0,48,0.00,CLR,,0.00,WeatherDisplay:10.37,2013-02-01 21:00:00,
2013-02-01 16:05:00,27.5,10.4,30.18,NNE,22,7.0,7.0,48,0.00,CLR,,0.00,WeatherDisplay:10.37,2013-02-01 21:05:00,
2013-02-01 16:10:00,29.8,11.5,30.19,NNE,22,8.1,8.5,46,0.00,CLR,,0.00,WeatherDisplay:10.37,2013-02-01 21:10:00,
2013-02-01 16:15:00,30.0,10.2,30.19,NNE,22,11.8,12.3,43,0.00,CLR,,0.00,WeatherDisplay:10.37,2013-02-01 21:15:00,
2013-02-01 16:20:00,28.6,8.9,30.19,NNE,22,7.7,7.7,43,0.00,CLR,,0.00,WeatherDisplay:10.37,2013-02-01 21:20:00,
2013-02-01 16:25:00,28.2,8.5,30.19,NNE,22,5.0,8.0,43,0.00,CLR,,0.00,WeatherDisplay:10.37,2013-02-01 21:25:00,
2013-02-01 16:30:00,27.7,7.6,30.18,NNE,22,8.0,8.0,42,0.00,CLR,,0.00,WeatherDisplay:10.37,2013-02-01 21:30:00,
2013-02-01 16:35:00,27.7,8.6,30.19,NNE,22,9.0,9.0,44,0.00,CLR,,0.00,WeatherDisplay:10.37,2013-02-01 21:35:00,
2013-02-01 16:40:00,27.2,8.6,30.19,NNE,22,3.0,8.0,45,0.00,CLR,,0.00,WeatherDisplay:10.37,2013-02-01 21:40:00,
2013-02-01 16:45:00,27.7,9.1,30.19,NNE,22,3.0,6.0,45,0.00,CLR,,0.00,WeatherDisplay:10.37,2013-02-01 21:45:00,
2013-02-01 16:50:00,27.5,8.4,30.19,NNE,22,8.0,8.0,44,0.00,CLR,,0.00,WeatherDisplay:10.37,2013-02-01 21:50:00,
2013-02-01 16:55:00,27.0,8.4,30.19,NNE,22,1.0,6.0,45,0.00,CLR,,0.00,WeatherDisplay:10.37,2013-02-01 21:55:00,
2013-02-01 17:00:00,26.6,8.1,30.19,NNE,22,3.0,6.0,45,0.00,CLR,,0.00,WeatherDisplay:10.37,2013-02-01 22:00:00,
2013-02-01 17:05:00,26.6,8.6,30.19,NNE,22,5.0,5.0,46,0.00,CLR,,0.00,WeatherDisplay:10.37,2013-02-01 22:05:00,
2013-02-01 17:10:00,26.8,8.7,30.19,NNE,22,2.3,2.3,46,0.00,CLR,,0.00,WeatherDisplay:10.37,2013-02-01 22:10:00,
2013-02-01 17:15:00,26.2,7.8,30.19,NNE,22,2.0,3.0,45,0.00,CLR,,0.00,WeatherDisplay:10.37,2013-02-01 22:15:00,
2013-02-01 17:20:00,25.5,7.1,30.19,NNE,22,1.0,6.0,45,0.00,CLR,,0.00,WeatherDisplay:10.37,2013-02-01 22:20:00,
2013-02-01 17:25:00,24.8,6.9,30.19,NNE,22,6.0,6.0,46,0.00,CLR,,0.00,WeatherDisplay:10.37,2013-02-01 22:25:00,
2013-02-01 17:30:00,23.0,5.7,30.20,NNE,22,4.6,4.6,47,0.00,CLR,,0.00,WeatherDisplay:10.37,2013-02-01 22:30:00,
2013-02-01 17:35:00,20.1,3.5,30.19,NNE,22,0.0,0.0,48,0.00,CLR,,0.00,WeatherDisplay:10.37,2013-02-01 22:35:00,
2013-02-01 17:40:00,19.1,3.5,30.19,NNE,22,0.0,0.0,50,0.00,CLR,,0.00,WeatherDisplay:10.37,2013-02-01 22:40:00,
2013-02-01 17:45:00,17.4,2.3,30.20,NNE,22,0.0,0.0,51,0.00,CLR,,0.00,WeatherDisplay:10.37,2013-02-01 22:45:00,
2013-02-01 17:50:00,16.5,1.9,30.19,NNE,22,0.0,0.0,52,0.00,CLR,,0.00,WeatherDisplay:10.37,2013-02-01 22:50:00,
2013-02-01 17:55:00,15.6,1.5,30.19,NNE,22,0.0,0.0,53,0.00,CLR,,0.00,WeatherDisplay:10.37,2013-02-01 22:55:00,
2013-02-01 18:00:00,15.1,1.4,30.19,NNE,22,0.0,0.0,54,0.00,CLR,,0.00,WeatherDisplay:10.37,2013-02-01 23:00:00,
2013-02-01 18:05:00,14.7,1.5,30.20,NNE,22,0.0,0.0,55,0.00,CLR,,0.00,WeatherDisplay:10.37,2013-02-01 23:05:00,
2013-02-01 18:10:00,14.2,1.3,30.20,NNE,22,0.0,0.0,56,0.00,CLR,,0.00,WeatherDisplay:10.37,2013-02-01 23:10:00,
2013-02-01 18:15:00,13.6,0.8,30.20,NNE,22,0.0,0.0,56,0.00,CLR,,0.00,WeatherDisplay:10.37,2013-02-01 23:15:00,
2013-02-01 18:20:00,13.3,0.9,30.20,NNE,22,0.0,0.0,57,0.00,CLR,,0.00,WeatherDisplay:10.37,2013-02-01 23:20:00,
2013-02-01 18:25:00,12.9,0.5,30.20,NNE,22,0.0,0.0,57,0.00,CLR,,0.00,WeatherDisplay:10.37,2013-02-01 23:25:00,
2013-02-01 18:30:00,12.7,0.7,30.21,NNE,22,0.0,0.0,58,0.00,CLR,,0.00,WeatherDisplay:10.37,2013-02-01 23:30:00,
2013-02-01 18:35:00,12.5,0.5,30.21,NNE,22,0.0,0.0,58,0.00,CLR,,0.00,WeatherDisplay:10.37,2013-02-01 23:35:00,
2013-02-01 18:40:00,12.3,0.3,30.20,NNE,22,0.0,0.0,58,0.00,CLR,,0.00,WeatherDisplay:10.37,2013-02-01 23:40:00,
2013-02-01 18:45:00,12.0,0.4,30.20,NNE,22,0.0,0.0,59,0.00,CLR,,0.00,WeatherDisplay:10.37,2013-02-01 23:45:00,
2013-02-01 18:50:00,11.5,-0.1,30.21,NNE,22,0.0,0.0,59,0.00,CLR,,0.00,WeatherDisplay:10.37,2013-02-01 23:50:00,
2013-02-01 18:55:00,11.3,0.1,30.21,NNE,22,0.0,0.0,60,0.00,CLR,,0.00,WeatherDisplay:10.37,2013-02-01 23:55:00,
2013-02-01 19:00:00,10.9,-0.2,30.21,NNE,22,0.0,0.0,60,0.00,CLR,,0.00,WeatherDisplay:10.37,2013-02-02 00:00:00,
2013-02-01 19:05:00,10.6,-0.2,30.21,NNE,22,0.0,0.0,61,0.00,CLR,,0.00,WeatherDisplay:10.37,2013-02-02 00:05:00,
2013-02-01 19:10:00,10.6,0.1,30.21,NNE,22,0.0,0.0,62,0.00,CLR,,0.00,WeatherDisplay:10.37,2013-02-02 00:10:00,
2013-02-01 19:15:00,10.6,0.1,30.21,NNE,22,0.0,0.0,62,0.00,CLR,,0.00,WeatherDisplay:10.37,2013-02-02 00:15:00,
2013-02-01 19:20:00,10.6,0.1,30.21,NNE,22,0.0,0.0,62,0.00,CLR,,0.00,WeatherDisplay:10.37,2013-02-02 00:20:00,
2013-02-01 19:25:00,10.6,0.5,30.21,NNE,22,0.0,0.0,63,0.00,CLR,,0.00,WeatherDisplay:10.37,2013-02-02 00:25:00,
2013-02-01 19:30:00,10.6,0.5,30.21,NNE,22,0.0,0.0,63,0.00,CLR,,0.00,WeatherDisplay:10.37,2013-02-02 00:30:00,
2013-02-01 19:35:00,10.6,0.5,30.22,NNE,22,0.0,0.0,63,0.00,CLR,,0.00,WeatherDisplay:10.37,2013-02-02 00:35:00,
2013-02-01 19:40:00,10.2,0.1,30.21,NNE,22,0.0,0.0,63,0.00,CLR,,0.00,WeatherDisplay:10.37,2013-02-02 00:40:00,
2013-02-01 19:45:00,10.2,0.4,30.21,NNE,22,0.0,0.0,64,0.00,CLR,,0.00,WeatherDisplay:10.37,2013-02-02 00:45:00,
2013-02-01 19:50:00,10.2,0.4,30.22,NNE,22,0.0,0.0,64,0.00,CLR,,0.00,WeatherDisplay:10.37,2013-02-02 00:50:00,
2013-02-01 19:55:00,10.0,0.3,30.22,NNE,22,0.0,0.0,64,0.00,CLR,,0.00,WeatherDisplay:10.37,2013-02-02 00:55:00,
2013-02-01 20:00:00,10.0,0.3,30.22,NNE,22,0.0,0.0,64,0.00,CLR,,0.00,WeatherDisplay:10.37,2013-02-02 01:00:00,
2013-02-01 20:05:00,9.7,0.3,30.23,NNE,22,0.0,0.0,65,0.00,CLR,,0.00,WeatherDisplay:10.37,2013-02-02 01:05:00,
2013-02-01 20:10:00,9.7,0.3,30.23,NNE,22,0.0,0.0,65,0.00,CLR,,0.00,WeatherDisplay:10.37,2013-02-02 01:10:00,
2013-02-01 20:15:00,9.7,0.6,30.23,NNE,22,0.0,0.0,66,0.00,CLR,,0.00,WeatherDisplay:10.37,2013-02-02 01:15:00,
2013-02-01 20:20:00,9.5,0.4,30.23,NNE,22,0.0,0.0,66,0.00,CLR,,0.00,WeatherDisplay:10.37,2013-02-02 01:20:00,
2013-02-01 20:25:00,9.1,0.1,30.23,NNE,22,0.0,0.0,66,0.00,CLR,,0.00,WeatherDisplay:10.37,2013-02-02 01:25:00,
2013-02-01 20:30:00,9.1,0.4,30.23,NNE,22,0.0,0.0,67,0.00,CLR,,0.00,WeatherDisplay:10.37,2013-02-02 01:30:00,
2013-02-01 20:35:00,8.8,0.0,30.24,NNE,22,0.0,0.0,67,0.00,CLR,,0.00,WeatherDisplay:10.37,2013-02-02 01:35:00,
2013-02-01 20:40:00,9.0,0.2,30.23,NNE,22,0.0,0.0,67,0.00,CLR,,0.00,WeatherDisplay:10.37,2013-02-02 01:40:00,
2013-02-01 20:45:00,9.0,0.2,30.24,NNE,22,0.0,0.0,67,0.00,CLR,,0.00,WeatherDisplay:10.37,2013-02-02 01:45:00,
2013-02-01 20:50:00,8.8,0.0,30.23,NNE,22,0.0,0.0,67,0.00,CLR,,0.00,WeatherDisplay:10.37,2013-02-02 01:50:00,
2013-02-01 20:55:00,8.8,0.0,30.23,NNE,22,0.0,0.0,67,0.00,CLR,,0.00,WeatherDisplay:10.37,2013-02-02 01:55:00,
2013-02-01 21:00:00,8.6,-0.1,30.23,NNE,22,0.0,0.0,67,0.00,CLR,,0.00,WeatherDisplay:10.37,2013-02-02 02:00:00,
2013-02-01 21:05:00,8.6,0.2,30.23,NNE,22,0.0,0.0,68,0.00,CLR,,0.00,WeatherDisplay:10.37,2013-02-02 02:05:00,
2013-02-01 21:10:00,8.4,0.3,30.23,NNE,22,0.0,0.0,69,0.00,CLR,,0.00,WeatherDisplay:10.37,2013-02-02 02:10:00,
2013-02-01 21:15:00,8.4,0.0,30.23,NNE,22,0.0,0.0,68,0.00,CLR,,0.00,WeatherDisplay:10.37,2013-02-02 02:15:00,
2013-02-01 21:20:00,7.9,-0.5,30.23,NNE,22,0.0,0.0,68,0.00,CLR,,0.00,WeatherDisplay:10.37,2013-02-02 02:20:00,
2013-02-01 21:25:00,7.9,-0.2,30.23,NNE,22,0.0,0.0,69,0.00,CLR,,0.00,WeatherDisplay:10.37,2013-02-02 02:25:00,
2013-02-01 21:30:00,7.7,-0.1,30.23,NNE,22,0.0,0.0,70,0.00,CLR,,0.00,WeatherDisplay:10.37,2013-02-02 02:30:00,
2013-02-01 21:35:00,7.5,-0.2,30.23,NNE,22,0.0,0.0,70,0.00,CLR,,0.00,WeatherDisplay:10.37,2013-02-02 02:35:00,
2013-02-01 21:40:00,7.5,-0.2,30.23,NNE,22,0.0,0.0,70,0.00,CLR,,0.00,WeatherDisplay:10.37,2013-02-02 02:40:00,
2013-02-01 21:45:00,7.5,-0.2,30.23,NNE,22,0.0,0.0,70,0.00,CLR,,0.00,WeatherDisplay:10.37,2013-02-02 02:45:00,
2013-02-01 21:50:00,7.5,-0.2,30.23,NNE,22,0.0,0.0,70,0.00,CLR,,0.00,WeatherDisplay:10.37,2013-02-02 02:50:00,
2013-02-01 21:55:00,7.5,0.1,30.23,NNE,22,0.0,0.0,71,0.00,CLR,,0.00,WeatherDisplay:10.37,2013-02-02 02:55:00,
2013-02-01 22:00:00,7.5,0.1,30.23,NNE,22,0.0,0.0,71,0.00,CLR,,0.00,WeatherDisplay:10.37,2013-02-02 03:00:00,
2013-02-01 22:05:00,7.3,-0.1,30.24,NNE,22,0.0,0.0,71,0.00,CLR,,0.00,WeatherDisplay:10.37,2013-02-02 03:05:00,
2013-02-01 22:10:00,7.0,-0.4,30.23,NNE,22,0.0,0.0,71,0.00,CLR,,0.00,WeatherDisplay:10.37,2013-02-02 03:10:00,
2013-02-01 22:15:00,7.0,-0.4,30.23,NNE,22,0.0,0.0,71,0.00,CLR,,0.00,WeatherDisplay:10.37,2013-02-02 03:15:00,
2013-02-01 22:20:00,7.0,-0.4,30.23,NNE,22,0.0,0.0,71,0.00,CLR,,0.00,WeatherDisplay:10.37,2013-02-02 03:20:00,
2013-02-01 22:25:00,7.0,-0.1,30.23,NNE,22,0.0,0.0,72,0.00,CLR,,0.00,WeatherDisplay:10.37,2013-02-02 03:25:00,
2013-02-01 22:30:00,7.0,-0.1,30.23,NNE,22,0.0,0.0,72,0.00,CLR,,0.00,WeatherDisplay:10.37,2013-02-02 03:30:00,
2013-02-01 22:35:00,6.6,-0.2,30.23,NNE,22,0.0,0.0,73,0.00,CLR,,0.00,WeatherDisplay:10.37,2013-02-02 03:35:00,
2013-02-01 22:40:00,6.6,-0.2,30.23,NNE,22,0.0,0.0,73,0.00,CLR,,0.00,WeatherDisplay:10.37,2013-02-02 03:40:00,
2013-02-01 22:45:00,6.6,-0.5,30.22,NNE,22,0.0,0.0,72,0.00,CLR,,0.00,WeatherDisplay:10.37,2013-02-02 03:45:00,
2013-02-01 22:50:00,6.4,-0.7,30.22,NNE,22,0.0,0.0,72,0.00,CLR,,0.00,WeatherDisplay:10.37,2013-02-02 03:50:00,
2013-02-01 22:55:00,6.4,-0.4,30.22,NNE,22,0.0,0.0,73,0.00,CLR,,0.00,WeatherDisplay:10.37,2013-02-02 03:55:00,
2013-02-01 23:00:00,6.1,-0.7,30.22,NNE,22,0.0,0.0,73,0.00,CLR,,0.00,WeatherDisplay:10.37,2013-02-02 04:00:00,
2013-02-01 23:05:00,5.9,-0.9,30.22,NNE,22,0.0,0.0,73,0.00,CLR,,0.00,WeatherDisplay:10.37,2013-02-02 04:05:00,
2013-02-01 23:10:00,5.7,-0.8,30.22,NNE,22,0.0,0.0,74,0.00,CLR,,0.00,WeatherDisplay:10.37,2013-02-02 04:10:00,
2013-02-01 23:15:00,5.5,-0.7,30.22,NNE,22,0.0,0.0,75,0.00,CLR,,0.00,WeatherDisplay:10.37,2013-02-02 04:15:00,
2013-02-01 23:20:00,5.5,-0.7,30.22,NNE,22,0.0,0.0,75,0.00,CLR,,0.00,WeatherDisplay:10.37,2013-02-02 04:20:00,
2013-02-01 23:25:00,5.4,-0.8,30.22,NNE,22,0.0,0.0,75,0.00,CLR,,0.00,WeatherDisplay:10.37,2013-02-02 04:25:00,
2013-02-01 23:30:00,5.4,-0.8,30.21,NNE,22,0.0,0.0,75,0.00,CLR,,0.00,WeatherDisplay:10.37,2013-02-02 04:30:00,
2013-02-01 23:35:00,5.2,-0.7,30.21,NNE,22,0.0,0.0,76,0.00,CLR,,0.00,WeatherDisplay:10.37,2013-02-02 04:35:00,
2013-02-01 23:40:00,5.2,-0.7,30.22,NNE,22,0.0,0.0,76,0.00,CLR,,0.00,WeatherDisplay:10.37,2013-02-02 04:40:00,
2013-02-01 23:45:00,5.2,-0.7,30.22,NNE,22,0.0,0.0,76,0.00,CLR,,0.00,WeatherDisplay:10.37,2013-02-02 04:45:00,
2013-02-01 23:50:00,5.0,-0.9,30.21,NNE,22,0.0,0.0,76,0.00,CLR,,0.00,WeatherDisplay:10.37,2013-02-02 04:50:00,
2013-02-01 23:55:00,5.0,-0.9,30.21,NNE,22,0.0,0.0,76,0.00,CLR,,0.00,WeatherDisplay:10.37,2013-02-02 04:55:00,